Brocton, IL

3:14 AM CST on February 10, 2016 (GMT -0600)
Edgar County

Weather History for KPRG - May, 2013

Change the Weather History Date:

Sunday, May 26, 2013

  Actual Average (KHUF) Record (KHUF)
Temperature  
Mean Temperature 58 °F 66 °F  
Max Temperature 65 °F 77 °F 94 °F (2012)
Min Temperature 50 °F 55 °F 34 °F (1979)
Degree Days  
Heating Degree Days 8 2  
Month to date heating degree days 125  
Since 1 July heating degree days 5345  
Cooling Degree Days 0 4  
Month to date cooling degree days 52  
Year to date cooling degree days 67  
Growing Degree Days 8 (Base 50)    
Moisture  
Dew Point 53 °F    
Average Humidity 83    
Maximum Humidity 94    
Minimum Humidity 69    
Precipitation  
Precipitation 0.04 in 0.20 in 1.22 in (1975)
Month to date precipitation 5.91  
Year to date precipitation 17.72  
Sea Level Pressure  
Sea Level Pressure 30.22 in    
Wind  
Wind Speed 8 mph (ESE)    
Max Wind Speed 16 mph    
Max Gust Speed 16 mph    
Visibility 10 miles    
Events Rain , Thunderstorm    
T = Trace of Precipitation, MM = Missing Value Source: NWS Daily Summary

Daily Weather History Graph

Daily Weather History Graph

Search for Another Location

Airport or City:

Trip Planner

Search our weather history database for the weather conditions in past years. The results will help you decide how hot, cold, wet, or windy it might be!

Date:

Astronomy

May. 26, 2013 Rise Set
Actual Time 5:27 AM CDT 8:08 PM CDT
Civil Twilight 4:56 AM CDT 8:39 PM CDT
Nautical Twilight 4:16 AM CDT 9:19 PM CDT
Astronomical Twilight 3:32 AM CDT 10:03 PM CDT
Moon 9:55 PM CDT (5/26) 6:56 AM CDT (5/26)
Length of Visible Light 15h 43m
Length of Day
14h 40m
Waning Gibbous, 96% of the Moon is Illuminated
May 26
Waning Gibbous
May 31
Last Quarter
Jun 8
New
Jun 16
First Quarter
Jun 23
Full

Hourly Weather History & Observations

Time (CDT) Temp. Dew Point Humidity Pressure Visibility Wind Dir Wind Speed Gust Speed Precip Events Conditions
12:15 AM 50.9 °F 49.1 °F 94% 30.28 in 10.0 mi ENE 10.4 mph - N/A   Overcast
12:35 AM 50.9 °F 49.1 °F 94% 30.27 in 10.0 mi ENE 9.2 mph - N/A   Overcast
12:55 AM 51.1 °F 49.1 °F 93% 30.27 in 10.0 mi East 9.2 mph - N/A   Overcast
1:15 AM 51.1 °F 48.7 °F 92% 30.26 in 10.0 mi East 8.1 mph - N/A   Overcast
1:35 AM 51.3 °F 48.4 °F 90% 30.26 in 10.0 mi East 4.6 mph - N/A   Overcast
1:55 AM 51.3 °F 48.6 °F 90% 30.26 in 10.0 mi East 4.6 mph - N/A   Overcast
2:15 AM 51.3 °F 48.6 °F 90% 30.25 in 10.0 mi East 5.8 mph - N/A   Overcast
2:35 AM 51.3 °F 48.4 °F 90% 30.25 in 10.0 mi East 5.8 mph - N/A   Overcast
2:55 AM 51.3 °F 48.2 °F 89% 30.24 in 10.0 mi East 4.6 mph - N/A   Overcast
3:15 AM 51.3 °F 48.2 °F 89% 30.24 in 10.0 mi East 3.5 mph - N/A   Overcast
3:35 AM 51.4 °F 48.4 °F 89% 30.24 in 10.0 mi East 3.5 mph - N/A   Overcast
3:55 AM 51.4 °F 48.4 °F 89% 30.25 in 10.0 mi East 4.6 mph - N/A   Overcast
4:15 AM 51.4 °F 48.6 °F 90% 30.25 in 10.0 mi East 5.8 mph - N/A   Overcast
4:35 AM 51.6 °F 48.6 °F 89% 30.26 in 10.0 mi East 4.6 mph - N/A   Overcast
4:55 AM 51.4 °F 48.4 °F 89% 30.25 in 10.0 mi ESE 4.6 mph - N/A Thunderstorm Overcast
5:15 AM 51.4 °F 48.4 °F 89% 30.25 in 10.0 mi East 4.6 mph - N/A   Overcast
5:35 AM 51.8 °F 48.7 °F 89% 30.26 in 10.0 mi Calm Calm - N/A   Overcast
5:55 AM 52.0 °F 49.1 °F 90% 30.26 in 10.0 mi East 6.9 mph - N/A   Overcast
6:15 AM 52.0 °F 48.7 °F 89% 30.27 in 10.0 mi East 3.5 mph - N/A Thunderstorm Overcast
6:35 AM 52.2 °F 49.1 °F 89% 30.27 in 10.0 mi East 5.8 mph - N/A   Overcast
6:55 AM 52.3 °F 49.3 °F 89% 30.27 in 10.0 mi East 4.6 mph - N/A   Overcast
7:15 AM 52.7 °F 49.3 °F 88% 30.28 in 10.0 mi East 4.6 mph - N/A   Overcast
7:35 AM 52.9 °F 49.3 °F 88% 30.28 in 10.0 mi ESE 4.6 mph - N/A   Overcast
7:55 AM 53.4 °F 49.8 °F 88% 30.29 in 10.0 mi Calm Calm - N/A   Overcast
8:15 AM 53.8 °F 50.0 °F 87% 30.29 in 10.0 mi ESE 4.6 mph - N/A   Overcast
8:35 AM 54.7 °F 50.4 °F 85% 30.29 in 10.0 mi East 5.8 mph - N/A   Overcast
8:55 AM 55.4 °F 50.4 °F 83% 30.30 in 10.0 mi ESE 6.9 mph - N/A   Overcast
9:15 AM 55.4 °F 50.0 °F 82% 30.29 in 10.0 mi ESE 8.1 mph - N/A   Overcast
9:35 AM 55.8 °F 50.9 °F 84% 30.28 in 10.0 mi ESE 9.2 mph - N/A   Overcast
9:55 AM 57.7 °F 51.8 °F 81% 30.27 in 10.0 mi ESE 10.4 mph - N/A   Mostly Cloudy
10:15 AM 57.9 °F 51.3 °F 78% 30.27 in 10.0 mi ESE 9.2 mph - N/A   Overcast
10:35 AM 58.6 °F 51.3 °F 76% 30.29 in 10.0 mi ESE 6.9 mph - N/A Thunderstorm Overcast
10:55 AM 60.4 °F 53.1 °F 77% 30.29 in 10.0 mi SE 9.2 mph - N/A   Overcast
11:15 AM 61.0 °F 53.4 °F 76% 30.28 in 10.0 mi SE 9.2 mph - N/A   Overcast
11:35 AM 61.9 °F 53.8 °F 75% 30.28 in 10.0 mi SE 12.7 mph - N/A   Scattered Clouds
11:55 AM 62.6 °F 53.6 °F 72% 30.28 in 10.0 mi SE 9.2 mph 16.1 mph N/A Thunderstorm Thunderstorm
12:01 PM 62.6 °F 53.6 °F 72% 30.28 in 10.0 mi SE 12.7 mph - N/A   Mostly Cloudy
12:15 PM 62.6 °F 53.8 °F 73% 30.26 in 10.0 mi ESE 11.5 mph - N/A   Overcast
12:35 PM 62.6 °F 52.9 °F 70% 30.25 in 10.0 mi ESE 9.2 mph - N/A Rain Light Rain
12:55 PM 64.0 °F 53.8 °F 69% 30.27 in 10.0 mi ESE 9.2 mph - N/A   Overcast
1:15 PM 62.8 °F 54.1 °F 73% 30.29 in 10.0 mi South 3.5 mph - N/A Rain Light Rain
1:35 PM 61.7 °F 54.5 °F 77% 30.28 in 10.0 mi SSE 5.8 mph - 0.01 in Rain Light Rain
1:55 PM 60.3 °F 55.0 °F 83% 30.24 in 10.0 mi SE 11.5 mph - 0.02 in Rain Light Rain
2:15 PM 59.4 °F 55.0 °F 86% 30.20 in 10.0 mi ESE 10.4 mph 16.1 mph 0.01 in Rain Light Rain
2:35 PM 60.8 °F 56.5 °F 86% 30.21 in 10.0 mi SE 8.1 mph - 0.02 in Thunderstorm Thunderstorm
2:55 PM 63.7 °F 57.9 °F 81% 30.21 in 10.0 mi SSE 12.7 mph 16.1 mph 0.02 in   Clear
3:15 PM 64.6 °F 57.0 °F 76% 30.19 in 10.0 mi SE 16.1 mph - N/A   Clear
3:35 PM 64.4 °F 57.6 °F 78% 30.21 in 10.0 mi SSE 13.8 mph - N/A   Scattered Clouds
3:55 PM 65.3 °F 57.9 °F 77% 30.19 in 10.0 mi SE 13.8 mph - N/A   Mostly Cloudy
4:15 PM 64.4 °F 56.7 °F 76% 30.19 in 10.0 mi SE 9.2 mph - N/A   Mostly Cloudy
4:35 PM 63.9 °F 55.8 °F 75% 30.18 in 10.0 mi ESE 6.9 mph - N/A   Overcast
4:55 PM 64.4 °F 56.5 °F 75% 30.19 in 10.0 mi ESE 6.9 mph - N/A   Mostly Cloudy
5:15 PM 64.0 °F 56.3 °F 76% 30.18 in 10.0 mi East 6.9 mph - N/A   Mostly Cloudy
5:35 PM 63.5 °F 56.1 °F 77% 30.18 in 10.0 mi East 6.9 mph - N/A Rain Light Rain
5:55 PM 62.2 °F 57.0 °F 83% 30.17 in 10.0 mi ESE 5.8 mph - N/A Rain Light Rain
6:15 PM 62.6 °F 58.1 °F 85% 30.16 in 10.0 mi East 9.2 mph - N/A   Overcast
6:35 PM 63.0 °F 57.9 °F 84% 30.15 in 10.0 mi East 8.1 mph - N/A Rain Light Rain
6:55 PM 62.8 °F 57.0 °F 81% 30.15 in 10.0 mi East 9.2 mph - N/A   Mostly Cloudy
7:15 PM 62.6 °F 56.5 °F 80% 30.14 in 10.0 mi East 8.1 mph - N/A   Overcast
7:35 PM 62.1 °F 56.7 °F 82% 30.15 in 10.0 mi East 5.8 mph - N/A   Mostly Cloudy
7:55 PM 61.7 °F 56.3 °F 82% 30.14 in 10.0 mi ESE 8.1 mph - N/A   Scattered Clouds
8:15 PM 61.3 °F 56.5 °F 84% 30.13 in 10.0 mi ESE 8.1 mph - N/A   Scattered Clouds
8:35 PM 61.7 °F 56.5 °F 83% 30.13 in 10.0 mi ESE 6.9 mph - N/A   Mostly Cloudy
8:55 PM 61.3 °F 56.5 °F 84% 30.12 in 10.0 mi ESE 8.1 mph - N/A   Overcast
9:15 PM 61.5 °F 56.5 °F 83% 30.12 in 10.0 mi ESE 8.1 mph - N/A   Overcast
9:35 PM 61.7 °F 56.1 °F 82% 30.12 in 10.0 mi East 9.2 mph - N/A   Overcast
9:55 PM 61.7 °F 55.8 °F 81% 30.13 in 10.0 mi ESE 6.9 mph - N/A   Overcast
10:15 PM 61.7 °F 55.8 °F 81% 30.15 in 10.0 mi NNE 6.9 mph - N/A   Overcast
10:35 PM 61.2 °F 56.3 °F 84% 30.14 in 10.0 mi NE 10.4 mph - N/A   Overcast
10:55 PM 60.1 °F 56.5 °F 88% 30.13 in 10.0 mi East 11.5 mph - N/A Rain Rain
11:15 PM 59.9 °F 56.5 °F 88% 30.12 in 10.0 mi East 11.5 mph - N/A   Scattered Clouds
11:35 PM 59.5 °F 56.3 °F 89% 30.12 in 10.0 mi East 9.2 mph - N/A   Clear
11:55 PM 59.9 °F 56.3 °F 88% 30.10 in 10.0 mi ESE 10.4 mph - N/A   Clear